{"data":{"norad_id":65138,"intl_designator":"2025-171G","name":"KUIPER-00099","alt_names":[],"object_type":"PAYLOAD","status":"ACTIVE","operator":null,"country":"US","launch_date":"2025-08-11","launch_site_code":"AFETR","launch_vehicle":null,"mission":null,"orbit_class":"UNKNOWN","rcs_meters":null,"size_class":null,"mass_kg":null,"dimensions":null,"purposes":[],"wikipedia_slug":null,"has_3d_model":false,"image_url":null,"decayed_at":null,"tle_current":{"epoch":"2026-09-21T18:08:12.011712Z","epoch_age_seconds":56427,"freshness":"FRESH","line1":"1 65138U 25171G   26264.75569458  .00002047  00000+0  29737-3 0  9991","line2":"2 65138  51.9034   6.1066 0000354 112.1810 247.9190 14.79932427 61997","mean_motion":14.79932427,"eccentricity":3.54e-5,"inclination_deg":51.9034,"raan_deg":6.1066,"arg_perigee_deg":112.181,"mean_anomaly_deg":247.919,"bstar":0.00029737,"rev_number":6199,"period_min":97.30173984491,"perigee_km":629.28936631948,"apogee_km":629.78550966969,"semimajor_km":7007.6744379946,"source":"CELESTRAK","updated_at":"2026-09-22T09:00:30.150752Z"}}}